[[{"header":{"parameterUnit":"m.s-1","parameterCategory":1,"la1":30.2991,"la2":30.254,"lo1":-89.0895,"lo2":-89.0444,"dy":0.0017,"dx":0.0017,"nx":28,"ny":28,"refTime":"2023-04-06T21:00:00:Z","depth":0,"parameterNumber":2,"parameterNumberName":"U-component_of_WINDS"},"data":[0,0,0,0,0,0,0,0,0,0,0,0,0,0,0,0,0,0,0,0,0,0,0,0,0,0,0,0,0,0,0,0,0,0,0,0,0,0,0,0,0,0,0,0,0,0,0,0,0,0,0,0,0,0,0,0,0,0,-3.22,-3.2199,0,-3.2136,-3.2136,-3.2135,-3.2061,-3.206,-3.2059,-3.2058,-3.1996,-3.1995,-3.1995,0,0,0,0,0,0,0,0,0,0,0,0,0,-3.2262,-3.2261,-3.22,-3.2199,-3.2198,-3.2136,-3.2136,-3.2135,-3.2061,-3.206,-3.2059,-3.2057,-3.1996,-3.1995,-3.1995,0,0,0,0,0,0,0,0,0,0,0,0,0,-3.2221,-3.2261,-3.22,-3.2154,-3.2149,-3.2137,-3.2135,-3.2134,-3.2062,-3.206,-3.2058,-3.2057,-3.1996,-3.1995,-3.1994,-3.2022,0,0,-3.1992,-3.1991,0,0,0,0,0,0,0,0,-3.2223,-3.2218,-3.2162,-3.2157,-3.2152,-3.2105,-3.2135,-3.2097,-3.2062,-3.2095,-3.2058,-3.2056,-3.2034,-3.203,-3.2021,-3.202,-3.2017,-3.1992,-3.1991,-3.1991,-3.199,0,0,0,0,0,0,0,-3.2226,-3.2221,-3.2175,-3.2161,-3.2155,-3.2138,-3.213,-3.2127,-3.2075,-3.2092,-3.2087,-3.208,-3.2031,-3.2022,-3.2019,-3.2016,-3.1992,-3.1991,-3.199,-3.199,-3.2035,-3.2036,0,0,0,0,0,0,-3.2235,-3.2224,-3.2177,-3.2173,-3.2184,-3.2138,-3.213,-3.2122,-3.2074,-3.2066,-3.2081,-3.2077,-3.2025,-3.2021,-3.2017,-3.2046,-3.1991,-3.199,-3.1989,-3.2033,-3.2035,-3.2037,0,0,0,0,0,0,-3.2237,-3.2232,-3.2179,-3.2197,-3.2189,-3.2139,-3.2131,-3.2121,-3.2113,-3.2066,-3.2057,-3.2082,-3.2023,-3.2018,-3.2021,-3.2043,-3.1989,-3.1989,-3.2031,-3.2034,-3.2036,-3.2105,0,0,0,0,0,0,-3.2239,-3.2233,-3.2242,-3.2197,-3.2188,-3.2184,-3.2132,-3.2121,-3.2111,-3.2104,-3.2065,-3.2057,-3.2022,-3.2023,-3.2021,-3.2041,-3.1988,-3.2029,-3.2032,-3.2035,-3.2101,-3.211,-3.2117,0,0,0,0,0,-3.2242,-3.2264,-3.2243,-3.2237,-3.2198,-3.2185,-3.218,-3.2138,-3.2113,-3.2122,-3.2093,-3.2058,-3.2042,-3.2024,-3.2021,-3.2041,-3.2027,-3.2031,-3.2035,-3.2097,-3.2108,-3.2117,0,0,0,0,0,0,-3.2313,-3.2258,-3.2233,-3.2242,-3.2219,-3.2173,-3.2183,-3.2151,-3.2136,-3.213,-3.2081,-3.2072,-3.2082,-3.2062,-3.2043,-3.2066,-3.2029,-3.2033,-3.2078,-3.2088,-3.2096,-3.21,-3.1987,0,0,0,0,0,-3.233,-3.2323,-3.2275,-3.2288,-3.2278,-3.2233,-3.2225,-3.2196,-3.217,-3.216,-3.2131,-3.2108,-3.2098,-3.2092,-3.208,-3.2099,-3.2089,-3.2111,-3.2119,-3.2126,-3.2129,-3.2137,-3.2147,-3.205,-3.205,-3.205,0,0,-3.2364,-3.2333,-3.2332,-3.2302,-3.228,-3.2275,-3.2225,-3.2221,-3.2217,-3.216,-3.216,-3.2139,-3.2111,-3.2121,-3.2125,-3.2105,-3.2154,-3.2131,-3.2137,-3.2136,-3.2142,-3.2152,-3.216,-3.2052,-3.2052,-3.2052,0,0,-3.2424,-3.24,-3.2407,-3.2387,-3.2355,-3.2326,-3.2328,-3.2287,-3.227,-3.227,-3.2227,-3.2223,-3.2206,-3.2188,-3.2176,-3.2232,-3.2199,-3.223,-3.2273,-3.2282,-3.2289,-3.2296,-3.2315,-3.2322,-3.2233,-3.2234,-3.2234,0,-3.2471,-3.246,-3.2416,-3.2415,-3.2403,-3.2351,-3.2359,-3.2342,-3.2309,-3.2302,-3.2281,-3.226,-3.2237,-3.2243,-3.2257,-3.225,-3.2251,-3.2233,-3.2292,-3.2298,-3.2303,-3.2321,-3.2328,-3.2237,-3.2237,-3.2237,-3.2236,0,-3.2519,-3.2513,-3.2523,-3.2491,-3.248,-3.2484,-3.2442,-3.2437,-3.241,-3.2383,-3.2384,-3.2356,-3.2337,-3.2337,-3.231,-3.234,-3.2328,-3.2301,-3.2262,-3.2317,-3.2332,-3.2339,-3.2243,-3.2241,-3.224,-3.2239,0,0,-3.2618,-3.2563,-3.2568,-3.2553,-3.2515,-3.251,-3.2513,-3.2494,-3.249,-3.2471,-3.2471,-3.246,-3.2434,-3.2421,-3.2392,-3.24,-3.2445,-3.2371,-3.2369,-3.2384,-3.2476,-3.2495,-3.2504,-3.2425,-3.2426,-3.2427,-3.2477,0,-3.267,-3.2669,-3.263,-3.2641,-3.2634,-3.2587,-3.2589,-3.2567,-3.2543,-3.2535,-3.2509,-3.2501,-3.2468,-3.246,-3.2466,-3.2438,-3.2463,-3.2435,-3.2425,-3.2425,-3.2431,-3.2512,-3.2532,-3.2581,-3.2483,-3.2484,-3.2485,0,-3.2729,-3.2711,-3.272,-3.2683,-3.2679,-3.2682,-3.2662,-3.2655,-3.263,-3.2612,-3.2599,-3.2566,-3.2568,-3.2534,-3.2535,-3.2517,-3.2512,-3.2498,-3.2499,-3.2494,-3.2457,-3.2508,-3.2596,-3.2603,-3.2495,-3.2494,-3.2493,0,-3.2799,-3.2778,-3.2781,-3.277,-3.2727,-3.273,-3.2712,-3.2685,-3.2677,-3.2661,-3.2655,-3.264,-3.2631,-3.2621,-3.2585,-3.2564,-3.2591,-3.2554,-3.2576,-3.2577,-3.2581,-3.2581,-3.2668,-3.2582,-3.2582,-3.2582,-3.2581,0,-3.2859,-3.2866,-3.2811,-3.2813,-3.282,-3.2778,-3.2787,-3.2765,-3.2742,-3.274,-3.2699,-3.2698,-3.2652,-3.2646,-3.2619,-3.2624,-3.2621,-3.2607,-3.2599,-3.2609,-3.2611,-3.2603,-3.2598,-3.2583,-3.2583,-3.2583,-3.2582,0,-3.2936,-3.29,-3.29,-3.286,-3.285,-3.2858,-3.2824,-3.2824,-3.2799,-3.2796,-3.2793,-3.2753,-3.2745,-3.2709,-3.2692,-3.2674,-3.2688,-3.2674,-3.2695,-3.269,-3.2713,-3.2711,-3.2796,-3.2805,-3.2716,-3.2717,-3.2717,0,-3.2976,-3.298,-3.2941,-3.2936,-3.292,-3.2912,-3.2903,-3.2863,-3.2856,-3.2829,-3.2833,-3.2821,-3.2808,-3.2797,-3.2767,-3.2755,-3.2739,-3.277,-3.2737,-3.2747,-3.2738,-3.2737,-3.2737,-3.2777,-3.2778,-3.2779,-3.2779,0,-3.3049,-3.3031,-3.3019,-3.3002,-3.2992,-3.2977,-3.2959,-3.2958,-3.2913,-3.2908,-3.2898,-3.2888,-3.2871,-3.286,-3.2842,-3.2826,-3.2795,-3.2791,-3.2795,-3.2804,-3.2815,-3.2808,-3.2713,-3.2788,-3.2787,-3.2787,-3.2786,-3.2786,-3.3107,-3.3109,-3.3082,-3.307,-3.3053,-3.3038,-3.3036,-3.3011,-3.3002,-3.2983,-3.2961,-3.2954,-3.2931,-3.2904,-3.2891,-3.2885,-3.2868,-3.2875,-3.2876,-3.2877,-3.2882,-3.2818,-3.2882,-3.2882,-3.2882,-3.2882,-3.2881,0,-3.3177,-3.3157,-3.3148,-3.3124,-3.3115,-3.3088,-3.3068,-3.3063,-3.3057,-3.3037,-3.3026,-3.3016,-3.3005,-3.2976,-3.2962,-3.2964,-3.295,-3.2962,-3.296,-3.2957,-3.2899,-3.2895,-3.2973,-3.2973,-3.2973,-3.2973,-3.2973,-3.2973,-3.3212,-3.3213,-3.3193,-3.3186,-3.3167,-3.3159,-3.3149,-3.3136,-3.312,-3.3109,-3.31,-3.3081,-3.3058,-3.3043,-3.3032,-3.3024,-3.302,-3.3037,-3.3024,-3.297,-3.2961,-3.2952,-3.2949,-3.3037,-3.3037,-3.3082,-3.3082,-3.3083]},{"header":{"parameterUnit":"m.s-1","parameterCategory":1,"la1":30.2991,"la2":30.254,"lo1":-89.0895,"lo2":-89.0444,"dy":0.0017,"dx":0.0017,"nx":28,"ny":28,"refTime":"2023-04-06T21:00:00:Z","depth":0,"parameterNumber":3,"parameterNumberName":"V-component_of_WINDS"},"data":[0,0,0,0,0,0,0,0,0,0,0,0,0,0,0,0,0,0,0,0,0,0,0,0,0,0,0,0,0,0,0,0,0,0,0,0,0,0,0,0,0,0,0,0,0,0,0,0,0,0,0,0,0,0,0,0,0,0,1.1883,1.1883,0,1.1874,1.1874,1.1873,1.1853,1.1853,1.1853,1.1852,1.1841,1.1841,1.1841,0,0,0,0,0,0,0,0,0,0,0,0,0,1.1886,1.1886,1.1883,1.1883,1.1883,1.1874,1.1874,1.1873,1.1853,1.1853,1.1852,1.1852,1.1841,1.1841,1.1841,0,0,0,0,0,0,0,0,0,0,0,0,0,1.1881,1.1886,1.1883,1.1872,1.1871,1.1874,1.1874,1.1873,1.1853,1.1853,1.1852,1.1852,1.1841,1.1841,1.1841,1.1853,0,0,1.1841,1.1841,0,0,0,0,0,0,0,0,1.1881,1.1881,1.1874,1.1873,1.1872,1.1864,1.187,1.1867,1.1854,1.186,1.1852,1.1851,1.1849,1.1848,1.1848,1.1853,1.1852,1.1841,1.1841,1.1841,1.1841,0,0,0,0,0,0,0,1.1882,1.1881,1.1879,1.1874,1.1872,1.1868,1.1867,1.1869,1.1858,1.1859,1.1858,1.1857,1.1848,1.1848,1.1847,1.1852,1.1841,1.1841,1.1841,1.1841,1.1871,1.1871,0,0,0,0,0,0,1.1884,1.1882,1.188,1.1879,1.1875,1.1868,1.1867,1.1867,1.1858,1.1856,1.1858,1.1856,1.1848,1.1847,1.1847,1.1863,1.1841,1.1841,1.1842,1.187,1.1871,1.1871,0,0,0,0,0,0,1.1884,1.1884,1.188,1.188,1.1879,1.1869,1.1869,1.1867,1.1867,1.1857,1.1854,1.1859,1.1847,1.1847,1.1853,1.1862,1.1841,1.1842,1.1869,1.187,1.1871,1.1893,0,0,0,0,0,0,1.1884,1.1884,1.1888,1.188,1.1879,1.1886,1.187,1.1867,1.1867,1.1865,1.1857,1.1856,1.1847,1.1853,1.1853,1.1862,1.1842,1.1868,1.1869,1.1871,1.1892,1.1895,1.1898,0,0,0,0,0,1.1884,1.1894,1.1888,1.1888,1.1884,1.1886,1.1886,1.1876,1.1868,1.1872,1.1867,1.1856,1.1861,1.1854,1.1853,1.1862,1.1867,1.1869,1.1871,1.189,1.1894,1.1898,0,0,0,0,0,0,1.1901,1.1892,1.1886,1.1893,1.1891,1.1883,1.1888,1.188,1.1879,1.1877,1.1865,1.1864,1.1872,1.1868,1.1859,1.1876,1.1863,1.1865,1.1878,1.1881,1.1885,1.1885,1.1842,0,0,0,0,0,1.1906,1.1908,1.1901,1.1908,1.1907,1.1898,1.1898,1.1892,1.1888,1.1887,1.1881,1.1878,1.188,1.188,1.1881,1.1892,1.189,1.1898,1.1901,1.1904,1.1905,1.1913,1.1917,1.1877,1.1877,1.1877,0,0,1.1915,1.1911,1.1913,1.1911,1.1908,1.1912,1.1897,1.19,1.1903,1.1887,1.1893,1.1889,1.1885,1.1894,1.1898,1.1891,1.1916,1.1906,1.1908,1.1908,1.1915,1.1919,1.1922,1.1878,1.1878,1.1877,0,0,1.1934,1.1931,1.1938,1.1936,1.1933,1.1927,1.1929,1.1923,1.192,1.1926,1.1915,1.1919,1.192,1.1919,1.1918,1.1941,1.1932,1.1942,1.1957,1.1965,1.1968,1.1971,1.198,1.1984,1.1943,1.1944,1.1944,0,1.1946,1.1951,1.1942,1.1947,1.1948,1.1935,1.1943,1.1941,1.1938,1.1939,1.1932,1.1936,1.1932,1.1942,1.1948,1.1948,1.195,1.1942,1.1969,1.1971,1.1974,1.1983,1.1986,1.1945,1.1945,1.1945,1.1944,0,1.1967,1.197,1.1976,1.1975,1.1976,1.1982,1.1975,1.1978,1.1972,1.1968,1.1975,1.1971,1.1972,1.1974,1.1967,1.1984,1.198,1.1971,1.1958,1.1979,1.1987,1.199,1.1947,1.1946,1.1946,1.1945,0,0,1.1993,1.199,1.1992,1.1993,1.199,1.1993,1.2,1.2001,1.2004,1.2004,1.201,1.2014,1.2006,1.2006,1.2,1.2006,1.2027,1.1997,1.1997,1.2003,1.2047,1.2054,1.2057,1.2022,1.2022,1.2023,1.2048,0,1.2011,1.2023,1.2017,1.2029,1.2033,1.2024,1.203,1.203,1.2027,1.203,1.2027,1.2031,1.202,1.202,1.2027,1.2023,1.2036,1.2021,1.2028,1.2028,1.2029,1.2061,1.2068,1.2091,1.205,1.2051,1.2051,0,1.2033,1.2036,1.2049,1.2048,1.205,1.2055,1.2058,1.2062,1.2062,1.206,1.2061,1.2054,1.2062,1.205,1.2061,1.2052,1.2055,1.2054,1.2054,1.2054,1.204,1.2063,1.2098,1.2102,1.2056,1.2056,1.2055,0,1.2053,1.2059,1.2069,1.2069,1.2068,1.2073,1.2073,1.2073,1.2075,1.2078,1.2079,1.2083,1.2084,1.2088,1.2082,1.2074,1.2095,1.2082,1.2094,1.2094,1.2098,1.2098,1.2135,1.21,1.21,1.21,1.21,0,1.2074,1.2083,1.2078,1.2083,1.2094,1.2088,1.2098,1.2097,1.2097,1.2103,1.2095,1.2101,1.2094,1.21,1.2096,1.2107,1.2107,1.2106,1.2105,1.2107,1.2107,1.2108,1.2106,1.2101,1.21,1.21,1.21,0,1.2096,1.2093,1.2103,1.2103,1.2103,1.2111,1.2111,1.2116,1.2114,1.2122,1.2124,1.2121,1.2127,1.2123,1.2129,1.2126,1.2141,1.2138,1.2141,1.214,1.2153,1.2152,1.2192,1.2197,1.2159,1.2159,1.2159,0,1.211,1.2117,1.2118,1.2122,1.2123,1.2129,1.2132,1.2128,1.2131,1.2134,1.214,1.2147,1.2151,1.2162,1.2161,1.2166,1.2163,1.2177,1.2163,1.2166,1.2164,1.2164,1.2165,1.2179,1.2179,1.218,1.218,0,1.2134,1.2134,1.2139,1.2144,1.2149,1.2153,1.2156,1.216,1.2156,1.2161,1.2168,1.2172,1.218,1.2187,1.2192,1.2192,1.2186,1.2185,1.2188,1.219,1.2192,1.2192,1.2149,1.2183,1.2183,1.2183,1.2183,1.2182,1.2153,1.216,1.2163,1.2169,1.2172,1.2176,1.2183,1.2183,1.2189,1.2195,1.2192,1.2202,1.2205,1.2211,1.2213,1.2221,1.2215,1.2219,1.222,1.2222,1.2224,1.2191,1.2222,1.2221,1.2221,1.2221,1.2221,0,1.2178,1.218,1.2187,1.2193,1.2199,1.2194,1.2198,1.2204,1.2212,1.2216,1.2221,1.2231,1.2239,1.2239,1.2246,1.2253,1.225,1.2255,1.2254,1.2255,1.2228,1.2225,1.2257,1.2257,1.2257,1.2257,1.2257,1.2257,1.2192,1.2203,1.2203,1.2217,1.2219,1.2229,1.2232,1.2236,1.224,1.2251,1.2258,1.2259,1.2262,1.227,1.2277,1.2277,1.228,1.2286,1.2285,1.226,1.2256,1.2253,1.225,1.2287,1.2287,1.2312,1.2312,1.2312]}]]